GFSSW_250_spd_159.txt.gz
Wind_Speed
84 82 78 74 74 75 75 76 73 73 79 72 71 72 70 65 58 58 55 55 55 52 47 49 52 52 51 48 44 41 40 39 37 35 34 30 31 30 30 31 31 33 32 30 28
86 86 85 79 77 77 79 77 79 74 73 80 75 78 75 76 72 68 65 61 57 55 51 47 49 55 53 52 48 46 43 41 39 38 40 37 35 33 35 34 35 37 37 34 33
89 89 90 84 82 79 82 81 79 80 77 74 75 73 77 81 78 73 68 65 61 59 56 50 48 47 56 55 54 49 49 45 46 44 45 41 37 36 36 37 39 41 39 38 37
95 92 93 93 90 84 83 84 82 80 80 78 76 73 69 72 75 73 70 70 66 62 60 55 51 48 46 58 57 56 53 49 51 50 50 46 42 42 40 41 44 43 44 43 43
98 97 95 96 94 92 86 88 88 84 81 80 76 77 80 73 71 73 73 71 69 66 63 62 55 53 47 48 55 61 58 55 57 54 53 51 48 47 46 45 47 48 48 46 45
105 101 98 98 98 95 92 89 93 89 86 84 82 78 79 82 77 75 75 75 73 69 67 64 63 58 55 51 48 58 62 59 61 58 55 55 53 52 51 48 49 49 48 48 47
109 106 103 101 100 100 99 95 96 94 89 89 85 82 79 82 80 78 78 76 72 71 69 68 65 65 61 56 51 52 50 62 63 63 59 57 56 57 53 54 54 53 50 48 46
117 113 109 106 104 103 105 105 99 99 95 93 89 86 84 80 85 81 80 74 72 75 72 70 70 62 55 55 58 54 52 52 64 62 60 57 58 57 58 55 56 53 48 45 38
120 117 116 111 110 107 108 108 106 102 99 96 93 89 87 83 82 86 84 85 81 70 74 74 63 67 63 61 59 54 53 55 58 61 59 58 62 59 57 57 56 50 46 44 41
123 121 117 115 113 112 113 111 111 108 104 99 96 93 89 90 87 87 89 87 85 84 77 74 75 70 65 69 63 61 55 55 58 57 60 62 66 61 60 59 56 50 49 49 50
125 121 120 117 118 116 115 114 113 110 104 103 99 100 97 94 93 90 90 89 87 84 80 74 71 76 77 67 62 63 60 56 58 59 58 62 65 60 60 53 54 54 52 55 55
127 122 120 122 121 117 116 115 116 116 113 106 107 104 102 101 96 94 92 90 90 84 85 78 74 75 78 78 73 64 63 61 61 60 62 59 56 58 58 56 57 56 56 55 55
126 124 123 120 119 117 117 118 119 118 114 110 110 105 104 102 96 94 93 91 92 92 85 80 78 79 80 78 75 74 69 64 61 64 65 59 57 57 58 58 60 59 60 61 66
128 125 119 119 121 116 120 120 120 115 115 112 109 107 107 106 102 98 96 93 91 94 91 82 78 78 77 82 79 74 73 70 63 60 60 67 62 61 64 63 64 63 65 69 72
128 122 119 120 118 112 114 117 120 118 121 116 113 109 108 107 104 105 99 96 96 97 95 90 86 81 79 82 85 84 72 77 72 64 61 63 61 70 64 63 65 70 77 80 81
129 122 121 120 117 113 112 113 114 118 116 111 113 111 109 108 109 108 104 97 102 99 98 96 93 91 84 85 84 88 84 86 84 78 73 74 74 61 67 72 70 72 76 80 84
130 125 120 120 118 110 109 109 108 115 102 97 102 111 112 110 110 109 107 105 101 100 102 102 98 97 93 88 87 89 90 90 84 80 69 76 71 61 68 81 82 81 84 86 82
130 127 119 120 118 112 111 107 111 106 98 89 90 98 106 109 109 109 107 108 104 102 100 101 100 100 97 93 90 93 92 92 89 79 75 75 76 73 78 85 85 84 82 80 80
127 127 123 121 119 114 113 111 111 100 95 89 89 92 96 104 110 111 107 106 106 104 101 100 102 98 100 102 97 96 93 93 87 88 83 80 80 82 86 86 87 88 87 90 93
125 128 126 123 119 115 115 114 109 99 96 92 87 86 89 93 100 104 111 108 105 105 104 101 97 98 97 97 102 100 99 97 94 94 91 87 85 84 84 87 88 90 92 94 98
118 125 129 126 122 122 120 115 108 103 96 95 89 89 91 91 93 94 97 106 106 107 103 99 96 99 98 95 97 97 97 99 98 96 97 97 96 93 93 94 96 96 98 100 100
120 125 128 128 123 125 121 116 111 105 96 93 90 90 91 90 90 91 91 99 105 103 103 100 97 98 98 103 104 102 101 100 99 96 99 99 96 100 98 99 99 101 103 103 102
112 114 121 126 129 124 121 116 112 106 98 94 91 91 92 92 91 92 93 95 93 102 106 106 103 98 97 101 104 101 100 100 102 100 97 97 93 95 94 95 98 100 99 102 103
112 116 119 124 128 128 116 116 111 102 99 95 92 94 94 92 94 95 95 98 101 100 104 110 110 109 107 103 100 100 102 103 104 103 100 98 97 97 96 96 102 105 107 106 104
111 118 122 124 123 121 120 116 110 107 103 98 94 92 93 91 97 97 98 100 103 106 105 107 109 112 113 110 106 101 99 101 101 101 97 96 95 94 95 100 106 104 104 103 105
111 115 118 119 119 116 114 112 108 110 107 103 100 98 97 93 98 108 105 102 102 104 108 108 108 104 104 104 105 105 106 106 104 102 100 101 98 100 104 108 108 110 109 109 111
108 111 115 117 117 115 111 110 109 110 111 109 107 103 101 99 99 103 102 103 106 104 107 112 113 111 107 109 107 103 104 105 107 110 109 106 103 103 108 111 113 113 112 111 110

GFSSW_250_spd_162.txt.gz
Wind_Speed
82 82 83 80 76 72 69 72 71 70 74 77 80 77 75 70 67 63 56 59 56 55 57 49 46 44 48 49 46 44 41 38 34 36 38 35 34 33 32 31 32 31 31 29 30
90 86 86 84 82 79 75 73 73 72 71 74 78 82 79 78 73 71 67 64 56 52 58 54 47 46 41 48 49 47 46 42 37 39 40 38 39 38 35 33 35 33 32 31 31
95 90 89 87 86 83 81 76 75 75 72 71 74 80 84 77 78 69 69 67 61 60 55 56 52 50 45 42 49 50 50 45 42 42 43 41 42 42 38 38 39 37 35 34 34
100 98 92 91 90 87 86 82 78 76 76 74 75 70 79 80 80 74 73 73 67 63 62 59 55 53 52 45 40 53 53 51 47 46 46 46 43 44 44 44 43 40 39 38 38
102 102 99 94 93 91 89 86 82 78 79 78 76 75 71 79 78 75 74 74 69 66 63 60 60 57 55 53 44 43 54 54 54 50 49 50 47 48 49 49 48 45 45 43 44
107 105 103 100 96 95 93 90 87 83 80 82 80 78 75 70 76 80 77 76 75 77 74 72 65 63 61 57 53 48 45 52 57 56 54 53 53 54 55 55 52 51 50 48 49
110 108 107 104 101 98 97 95 93 88 85 83 83 82 78 77 71 77 84 84 80 81 82 77 74 68 65 63 57 56 54 46 47 54 57 56 54 60 58 54 56 55 54 54 52
113 111 110 109 106 102 100 99 96 95 91 87 83 83 81 79 77 75 81 85 82 80 75 77 75 69 69 66 62 61 57 54 52 45 43 59 57 61 58 57 59 57 58 60 57
117 114 113 113 111 109 103 100 99 99 95 90 85 84 83 82 80 79 79 84 86 83 81 78 76 74 69 68 67 61 61 62 61 57 52 44 60 61 63 63 63 61 60 61 59
121 119 117 117 116 114 110 105 102 100 96 91 89 87 86 87 85 84 82 83 86 88 85 80 79 79 70 71 71 65 64 59 57 57 54 53 52 53 59 62 63 63 63 60 56
125 124 123 121 119 118 116 111 102 100 95 92 93 94 94 95 93 90 88 85 85 89 90 85 80 78 80 78 71 69 62 64 65 63 61 56 54 54 54 59 64 66 63 63 59
131 128 127 125 123 123 119 114 105 100 104 104 101 99 99 100 98 95 90 89 88 87 88 87 84 81 80 77 76 71 73 64 60 67 65 63 54 54 56 57 59 61 62 62 59
133 133 132 128 127 125 119 113 114 113 110 104 102 101 100 96 98 97 94 91 90 89 87 88 88 86 85 80 79 79 73 76 73 64 60 60 60 58 55 58 61 60 59 59 58
136 137 136 132 134 125 118 116 115 117 115 107 104 104 103 102 98 98 98 95 90 90 91 87 88 91 89 87 85 82 80 78 74 75 71 68 60 58 61 60 59 58 58 60 62
135 137 136 137 134 127 123 123 120 123 120 115 110 109 107 104 103 102 101 101 96 96 91 92 91 91 88 91 91 87 87 84 79 77 75 72 72 64 63 63 61 66 70 68 67
135 138 136 139 134 132 131 128 126 129 126 117 115 108 108 106 107 108 103 102 102 100 96 93 94 93 90 92 90 91 88 87 82 80 76 74 73 65 64 65 65 68 68 69 73
130 135 135 137 135 134 134 131 132 134 124 117 114 111 112 112 111 112 109 105 105 106 101 99 95 95 95 94 92 93 91 91 90 82 75 80 82 71 69 70 72 71 72 75 79
123 130 133 135 132 134 136 133 135 132 124 116 114 113 113 113 114 114 112 108 106 104 105 103 99 95 97 96 94 98 98 94 91 87 80 74 74 75 80 81 82 80 79 82 85
119 123 128 134 133 134 136 136 134 126 121 116 116 113 114 113 113 114 112 110 108 107 108 106 104 101 98 97 98 96 96 97 95 92 89 85 81 80 84 86 86 89 86 87 88
113 119 122 129 130 132 135 135 128 125 121 120 117 115 114 114 116 117 117 113 111 109 108 109 108 104 102 101 98 100 99 99 97 97 95 92 90 89 85 88 92 91 90 90 87
112 115 115 121 127 132 134 132 124 121 121 119 117 115 111 112 115 115 116 114 113 112 110 109 107 110 108 102 100 100 102 103 101 98 93 91 93 87 87 89 89 91 93 95 94
110 108 116 118 127 129 130 127 122 120 119 117 115 113 106 108 111 109 106 105 104 105 110 112 111 111 111 108 106 104 103 104 102 98 97 95 91 93 92 91 92 95 96 98 99
96 101 114 118 121 123 125 125 120 119 116 116 112 110 103 102 103 102 100 97 94 94 97 101 110 111 109 109 108 105 104 104 102 101 98 96 94 97 98 102 103 103 101 100 101
99 106 112 114 116 118 120 122 119 117 119 116 114 111 105 102 100 99 98 94 91 91 90 91 95 106 108 107 107 105 105 104 104 98 91 91 96 98 97 98 103 105 106 105 105
99 101 109 115 115 111 111 116 118 117 119 110 112 107 103 102 101 98 95 95 93 90 89 89 88 90 95 101 107 108 104 101 100 93 92 91 92 94 99 104 104 104 107 107 105
100 103 109 108 108 108 110 113 113 114 114 111 101 104 104 102 101 101 100 97 96 93 91 91 88 90 92 90 93 94 92 90 93 94 95 97 95 97 102 106 109 112 111 108 108
91 87 97 105 109 110 109 109 108 108 110 109 107 106 109 108 109 106 104 100 97 94 91 92 90 89 89 91 91 90 93 99 100 100 102 99 97 99 100 102 100 102 103 105 106

GFSSW_250_spd_165.txt.gz
Wind_Speed
89 86 86 82 78 75 75 71 70 69 65 81 79 82 81 73 68 69 68 67 63 61 56 55 50 47 44 43 41 40 40 38 40 40 36 37 35 34 33 34 33 33 32 30 32
93 89 89 86 82 76 78 76 72 72 70 72 77 80 81 83 75 69 70 70 65 61 57 57 54 51 51 47 43 38 44 43 43 45 42 40 38 39 38 37 36 34 34 33 35
98 94 92 91 85 81 81 80 78 73 73 70 77 78 80 82 78 73 72 69 67 63 66 57 55 50 51 46 46 43 37 42 47 48 46 44 42 42 41 41 39 37 38 36 38
101 100 96 94 90 86 83 85 80 76 76 74 74 76 79 81 79 79 76 73 68 65 68 63 56 54 52 51 48 41 41 38 50 50 49 49 45 45 44 45 44 41 38 37 40
103 103 101 98 95 90 85 88 85 81 78 78 77 75 74 78 76 82 82 81 72 72 67 68 75 55 50 54 55 50 46 46 39 52 52 51 49 48 46 48 48 46 44 42 44
106 104 103 103 101 95 89 90 91 88 83 79 75 76 75 71 77 77 82 81 80 76 73 69 71 67 68 61 62 59 53 49 48 40 55 54 53 51 50 52 49 47 49 48 48
107 107 105 104 102 101 97 92 96 93 89 84 80 78 76 75 71 73 79 81 83 83 79 71 70 68 64 64 62 62 58 54 50 49 39 57 55 58 54 54 53 53 55 53 53
113 111 110 106 106 103 102 99 97 99 95 90 86 81 78 75 73 74 75 77 78 84 81 74 73 74 70 64 61 59 58 57 56 55 53 44 49 62 58 57 57 58 59 58 56
118 116 112 109 107 106 105 103 101 102 101 95 91 86 82 77 78 80 74 74 77 77 82 81 77 74 72 71 70 66 61 61 64 58 56 53 47 49 54 58 60 60 61 60 58
121 120 117 113 109 108 108 107 105 104 101 99 97 90 85 83 80 80 81 75 73 76 80 80 81 81 79 78 79 76 69 66 65 67 61 59 60 57 50 46 47 57 63 62 59
128 124 121 117 114 112 112 113 109 104 99 98 96 96 92 90 86 83 83 83 78 74 75 78 81 83 89 86 81 79 76 72 71 69 67 63 60 63 62 56 57 55 52 51 51
133 128 124 122 118 117 116 112 110 103 102 101 99 100 98 97 95 89 87 87 84 79 77 75 77 87 86 81 81 79 79 78 72 71 72 70 65 66 63 60 61 63 64 60 53
131 131 128 125 123 122 118 115 111 110 110 106 103 106 104 100 99 96 93 90 88 84 80 78 81 80 80 81 79 79 81 78 77 76 75 74 73 65 67 64 63 64 65 62 60
133 132 131 129 129 127 121 119 116 115 116 111 106 105 100 98 96 94 93 92 88 89 84 82 79 82 82 81 83 81 82 80 78 78 77 75 72 76 73 64 63 64 67 65 65
137 133 133 131 129 129 124 122 120 121 121 115 111 109 105 100 96 97 96 94 93 91 88 87 83 81 81 85 83 81 85 82 79 80 78 75 75 71 77 81 80 78 75 72 70
136 136 134 134 133 133 129 126 126 126 126 117 113 109 107 102 99 99 96 92 93 91 90 90 89 86 83 85 85 83 85 87 85 84 77 77 79 70 75 77 79 81 79 79 80
130 136 136 133 134 136 132 132 133 134 128 117 112 111 112 108 104 100 98 96 95 93 92 93 93 92 90 88 87 87 90 90 89 86 79 81 83 76 80 83 82 81 81 82 83
122 130 136 135 136 138 140 139 139 133 126 116 115 116 116 113 110 106 104 101 98 94 93 93 92 94 93 92 92 91 92 92 90 87 85 83 81 80 82 86 88 89 87 85 84
117 121 130 133 138 142 142 144 142 130 124 118 120 120 117 114 112 112 107 103 102 100 98 97 95 94 96 96 95 96 93 93 91 91 90 86 86 87 85 86 87 89 93 93 90
111 116 119 128 135 141 145 146 140 135 130 126 123 120 117 115 114 113 110 107 107 105 104 101 101 98 98 99 97 98 100 99 96 92 91 91 90 91 92 92 91 92 92 92 92
108 113 116 120 133 142 144 145 141 139 134 129 124 121 117 115 115 115 114 113 113 113 109 104 103 102 102 99 101 102 102 104 104 100 95 91 91 93 92 94 95 95 92 92 93
106 111 118 121 127 133 141 143 143 140 136 132 128 124 121 120 120 119 115 115 116 116 112 110 108 107 106 106 106 106 104 104 104 103 102 98 94 92 94 96 97 98 99 100 101
100 114 118 122 122 125 131 137 137 138 135 131 128 125 123 121 121 120 118 118 117 115 112 112 111 110 110 108 108 106 104 106 107 107 103 102 96 97 98 97 103 106 104 105 104
96 112 118 120 118 118 120 124 129 132 134 130 128 126 125 126 123 121 119 119 118 118 116 115 112 110 111 109 108 109 110 109 109 109 105 106 103 100 100 102 105 107 108 107 105
89 105 114 117 118 116 117 117 117 122 126 126 126 124 122 120 120 121 118 117 117 117 116 114 111 112 112 109 108 107 107 108 106 107 108 107 108 106 106 107 111 110 110 109 106
83 97 108 111 110 108 108 109 109 108 108 110 113 116 117 116 114 116 118 117 116 115 114 114 113 112 109 107 102 98 94 97 96 96 100 105 108 111 114 112 110 111 111 108 106
76 88 96 104 103 105 107 105 103 101 100 101 104 108 110 112 114 116 118 115 111 110 109 110 108 108 106 102 98 92 90 90 88 86 88 91 95 106 111 111 111 110 109 107 105

GFSSW_250_spd_168.txt.gz
Wind_Speed
96 92 89 86 81 79 79 75 71 71 69 67 65 71 77 80 76 68 69 66 64 60 57 53 51 54 49 44 40 39 41 38 36 37 40 38 36 33 33 32 33 34 34 35 35
103 97 94 90 84 83 79 78 74 72 73 70 69 70 74 80 81 76 66 67 66 64 63 57 51 54 49 50 48 40 40 39 40 40 41 43 40 38 36 35 33 34 34 37 38
99 104 96 94 90 86 82 81 77 75 75 74 69 67 77 76 82 82 72 67 67 70 66 65 58 53 56 51 44 46 45 42 39 40 44 46 45 43 41 40 37 37 36 36 38
102 102 103 99 94 89 86 84 82 79 76 78 73 71 68 80 79 82 78 73 66 63 68 70 66 56 60 56 53 49 49 45 44 38 40 49 49 48 45 44 41 41 40 39 41
107 103 103 102 98 93 90 87 84 81 79 79 77 72 72 71 80 83 83 80 75 69 63 72 70 67 62 55 52 51 49 48 46 43 34 42 52 51 49 48 46 45 45 42 44
111 107 105 104 101 98 94 91 88 84 81 82 80 74 72 71 73 84 85 82 80 77 71 64 68 73 64 60 60 53 50 51 50 46 43 39 42 54 53 52 49 48 48 47 47
114 112 109 106 102 101 99 97 93 88 85 81 82 78 72 75 70 75 83 84 83 83 76 71 65 71 71 66 65 54 53 52 54 54 52 51 43 47 55 55 52 52 51 51 49
117 115 111 108 105 104 101 100 97 92 89 84 83 81 76 74 74 73 77 81 82 83 83 79 73 70 70 64 69 64 65 67 59 61 60 56 51 53 40 54 59 55 54 54 52
120 118 114 111 106 105 104 103 101 99 93 90 84 84 81 76 77 76 76 76 79 80 84 83 79 77 72 68 68 67 65 65 66 63 58 59 54 57 55 46 43 52 60 58 56
121 120 118 113 110 110 106 105 105 101 100 96 90 86 84 82 79 78 77 77 78 78 80 79 80 79 78 77 73 67 67 64 65 60 57 58 56 57 56 56 52 49 50 53 57
124 123 121 115 114 112 109 109 109 108 102 96 93 90 90 88 84 79 77 76 77 77 78 80 81 78 82 81 77 77 70 70 71 65 64 63 58 59 59 57 60 61 55 53 49
126 122 120 120 117 115 113 112 110 106 102 101 97 97 97 94 91 87 83 81 76 76 76 75 71 74 76 78 79 78 78 80 78 73 72 71 65 66 62 62 65 65 64 63 61
129 126 122 121 120 120 116 113 111 110 107 104 103 102 102 103 99 94 90 85 81 77 75 73 76 74 70 69 72 74 76 76 79 80 79 76 71 71 73 70 70 71 71 70 68
132 129 125 124 126 124 121 116 113 112 112 110 107 107 104 103 102 99 95 91 85 80 79 77 77 72 71 70 71 71 75 77 78 77 79 78 73 77 77 75 71 73 76 77 77
132 134 127 125 130 128 121 119 116 116 119 115 109 107 106 102 101 101 98 94 94 88 85 81 80 80 74 71 73 73 74 72 72 72 75 78 75 73 75 77 78 78 79 79 78
127 134 132 129 130 129 125 123 121 123 126 116 111 106 105 104 102 100 99 99 98 94 90 85 81 80 81 81 74 70 73 75 75 75 70 73 71 64 76 76 76 77 80 79 79
120 129 134 133 130 131 129 127 129 131 128 117 110 107 108 105 106 102 101 101 99 98 94 92 90 87 85 83 81 79 81 78 79 77 72 73 74 67 73 79 81 81 80 81 81
111 124 134 133 132 130 135 133 137 133 126 118 111 113 112 110 106 103 103 100 98 96 97 94 92 91 92 88 85 86 84 86 81 78 77 78 75 76 78 78 82 83 84 85 84
104 116 126 132 132 140 134 136 138 136 127 121 118 117 115 110 108 104 102 103 100 96 97 96 94 93 95 95 92 88 86 88 88 85 82 78 76 79 82 85 85 87 88 88 88
102 107 119 128 136 140 140 138 139 139 132 124 123 118 113 111 109 107 105 102 103 101 100 97 96 95 95 97 93 92 92 92 90 90 89 87 84 83 83 85 89 91 92 91 91
101 104 112 127 136 142 144 140 137 138 137 131 123 119 115 113 111 110 108 107 107 107 106 104 103 99 97 94 95 94 92 93 93 92 89 88 88 87 88 90 93 94 94 94 95
96 102 111 118 129 139 140 141 137 139 138 132 128 121 118 116 115 115 112 111 112 114 111 110 107 105 101 99 97 96 96 95 94 92 92 89 85 88 90 93 96 99 102 102 101
89 100 110 116 123 129 132 138 141 139 136 133 132 125 120 120 118 115 114 113 113 114 113 111 110 108 107 104 101 99 99 98 97 96 93 93 88 91 92 96 100 103 105 105 105
83 97 108 114 117 118 126 132 136 138 137 134 131 129 126 124 121 116 114 114 115 115 113 113 112 110 109 109 108 105 104 103 102 99 98 96 98 99 101 102 105 105 106 108 108
77 88 101 108 112 109 118 123 131 135 137 135 131 126 127 126 122 118 116 116 114 115 115 114 114 114 114 113 111 110 109 108 106 106 105 103 103 104 106 108 108 108 110 111 110
71 82 94 103 112 112 115 118 123 125 128 126 127 126 123 124 120 119 120 120 119 119 118 117 116 117 116 113 110 108 107 106 105 106 106 106 105 109 112 111 109 110 111 110 113
65 79 90 98 105 110 112 111 108 111 114 116 122 125 123 118 120 121 123 124 123 122 121 120 118 117 114 114 113 110 109 110 111 112 113 110 111 112 111 110 107 103 101 101 103

GFSSW_250_spd_171.txt.gz
Wind_Speed
102 97 94 93 93 89 82 74 75 81 75 68 67 66 62 70 74 76 72 69 66 65 62 58 51 48 47 51 52 47 44 41 37 34 32 34 35 35 34 33 31 30 30 31 31
108 104 97 95 94 92 90 81 86 81 77 72 69 68 66 66 75 77 75 70 66 68 65 62 57 51 49 45 52 52 47 42 38 38 35 34 37 39 37 35 33 31 30 31 31
111 109 105 98 95 94 92 90 87 80 79 75 70 71 68 65 72 76 77 74 70 68 69 66 66 58 51 48 50 52 51 44 41 41 40 37 40 42 41 38 35 34 33 31 32
112 113 107 103 99 95 96 92 85 83 83 78 73 74 72 68 66 74 77 78 73 70 70 67 68 64 60 53 52 50 53 47 47 44 41 41 39 44 45 43 40 38 37 36 36
113 112 110 106 103 99 97 96 88 87 82 79 76 74 73 72 69 68 77 80 79 74 69 72 70 66 63 64 59 50 53 52 47 45 45 44 41 41 45 47 44 43 42 39 40
116 115 112 109 107 105 101 97 93 89 84 81 79 74 75 72 71 70 71 79 81 80 73 68 73 68 65 62 64 66 50 49 46 49 49 44 42 40 41 38 44 47 46 44 43
117 116 115 114 108 107 106 103 98 94 86 86 81 78 76 76 74 71 67 76 78 83 80 71 75 72 67 66 58 64 64 58 53 52 50 48 43 45 43 40 35 36 50 50 47
118 117 115 115 112 108 108 107 103 98 94 89 85 81 79 77 75 71 70 67 79 79 82 82 71 72 73 70 66 67 63 61 57 53 52 48 47 50 49 49 46 44 39 48 52
117 116 117 115 113 110 109 107 106 104 101 93 88 84 83 78 77 77 71 72 70 80 80 81 80 73 70 67 62 66 68 69 62 59 54 50 52 56 54 52 49 48 49 46 43
120 116 118 116 114 114 110 110 108 108 103 97 92 86 82 83 80 78 76 73 73 72 80 81 79 77 76 74 69 66 70 71 71 65 60 60 61 58 55 55 57 55 54 53 48
120 119 119 119 117 115 113 111 115 112 102 99 96 95 91 89 85 82 81 77 74 75 70 78 79 79 82 81 76 72 66 66 70 65 63 66 59 61 59 57 54 54 51 51 53
128 123 120 119 119 116 117 114 114 109 105 103 100 97 94 93 89 85 83 80 75 73 74 70 75 80 80 80 80 79 77 72 71 71 66 65 67 67 63 59 59 61 63 61 56
130 129 122 123 122 121 118 118 115 113 111 106 103 102 99 95 93 88 84 82 80 75 75 75 73 74 75 80 80 81 83 81 77 76 72 68 65 64 62 66 66 67 66 66 62
130 132 126 127 124 122 120 120 118 113 114 110 107 103 101 99 97 92 87 83 81 79 78 76 73 72 72 72 74 75 78 79 77 79 78 79 71 71 72 73 73 73 76 75 73
127 132 130 128 125 120 118 119 122 116 119 114 110 106 104 100 96 94 92 90 88 86 80 76 76 74 73 74 75 74 75 77 76 72 71 72 72 68 72 73 74 76 77 76 76
121 130 133 129 126 124 121 121 124 125 125 117 110 107 104 100 100 98 94 92 92 88 86 80 77 76 73 73 71 71 72 73 73 74 74 68 69 66 74 77 77 76 78 78 78
110 122 129 133 127 126 122 122 127 129 129 119 113 109 107 104 103 101 97 95 93 92 91 87 84 81 78 76 72 71 72 72 71 70 67 69 69 69 69 74 75 74 74 74 74
103 111 121 129 131 129 127 127 129 130 129 123 115 113 111 107 106 103 102 99 95 94 95 92 88 86 85 82 79 76 75 75 73 70 69 70 67 67 71 73 76 77 76 75 75
97 103 112 123 127 127 129 131 129 130 130 124 121 120 114 110 106 104 102 102 99 98 98 96 95 93 91 89 87 83 79 79 76 75 73 72 70 71 72 74 77 80 79 78 79
92 98 105 114 123 126 133 133 131 130 130 128 124 119 113 112 108 105 102 101 102 102 101 99 98 98 97 95 91 89 88 86 85 84 81 79 77 79 80 81 82 80 80 81 82
88 94 101 108 117 128 132 134 132 130 131 129 124 121 117 113 110 108 105 103 103 101 104 104 101 99 99 97 97 97 95 95 94 92 90 87 85 85 85 85 86 87 87 88 89
81 91 98 103 111 119 130 132 134 136 136 130 125 122 120 116 114 111 108 107 107 107 106 107 107 105 101 99 98 98 96 95 96 96 94 90 87 88 88 89 91 91 92 91 90
75 87 95 101 106 113 123 132 135 135 137 132 125 122 121 119 118 115 112 112 112 109 106 105 104 104 103 101 99 97 98 98 97 96 93 93 88 90 91 91 91 91 90 90 91
70 83 92 97 101 107 115 122 127 133 134 134 128 122 122 122 120 118 115 112 111 110 108 107 106 105 103 102 101 101 101 101 100 96 97 93 94 92 91 93 94 95 93 95 97
62 73 84 93 99 103 105 112 124 130 135 135 131 122 120 121 120 119 116 114 112 110 109 108 107 105 105 106 106 106 105 104 102 102 100 100 99 101 101 100 99 100 101 103 102
56 66 77 90 100 105 103 105 115 123 127 130 131 122 120 120 119 119 116 116 115 113 111 110 110 110 109 109 109 108 106 105 104 105 106 106 102 106 108 104 103 107 108 107 110
55 63 73 86 96 101 98 99 101 110 121 126 124 121 119 118 121 124 124 122 119 119 118 115 111 112 110 110 110 107 105 108 110 109 109 106 108 110 109 109 109 110 109 111 110

GFSSW_250_spd_174.txt.gz
Wind_Speed
109 101 90 86 91 93 89 86 83 83 83 81 75 70 70 68 67 68 72 71 71 68 64 62 56 50 46 43 42 51 49 45 42 41 37 34 34 32 31 31 31 29 29 28 28
112 107 97 94 96 86 90 89 87 85 84 82 80 75 71 71 70 65 71 72 70 70 68 64 61 54 50 44 45 46 52 49 47 44 41 36 35 32 32 32 33 32 30 31 30
116 111 107 99 98 94 91 87 88 87 89 84 81 78 74 74 69 69 68 73 73 73 68 68 66 62 56 54 48 45 48 52 49 46 43 38 38 32 32 33 37 36 33 31 31
123 117 115 113 102 84 92 68 89 90 92 86 82 79 76 73 72 71 67 73 75 74 72 68 68 66 64 59 55 49 45 50 52 49 45 42 40 36 36 35 38 40 38 36 33
126 119 117 113 111 101 88 81 82 88 94 91 84 81 78 75 71 70 69 69 77 76 75 70 68 66 67 65 60 56 51 47 51 52 48 44 44 41 41 38 34 39 41 41 40
124 125 119 117 113 107 101 91 94 97 96 91 89 83 82 77 73 72 72 69 75 79 76 74 68 67 68 69 65 60 59 52 45 52 52 49 46 44 43 40 42 38 40 39 43
125 126 124 120 115 114 105 108 101 99 92 89 88 82 79 78 72 71 72 72 71 79 81 78 73 67 68 69 70 66 62 61 55 52 56 54 49 51 45 44 46 41 38 37 35
127 129 126 122 118 114 115 102 107 108 105 96 90 84 78 77 75 72 72 72 72 73 79 80 79 71 70 69 70 71 69 64 62 58 53 55 55 50 49 47 45 47 47 48 44
125 127 130 124 121 117 116 113 102 105 109 103 94 89 83 79 78 76 75 75 72 71 72 78 81 79 74 70 71 70 68 66 67 65 55 51 57 53 51 48 46 47 48 49 49
129 125 129 124 122 120 117 116 112 107 103 105 99 95 84 82 81 80 78 77 76 72 70 71 80 82 79 74 69 71 72 71 70 66 64 59 60 58 54 49 50 53 55 53 50
128 123 123 127 123 118 120 121 121 117 111 102 102 98 94 92 89 85 83 81 79 75 71 71 69 75 81 80 76 71 73 73 68 65 63 63 60 59 59 54 55 58 57 55 49
129 125 124 126 125 123 121 123 125 120 116 111 108 100 97 96 92 89 87 83 81 78 75 72 70 68 76 79 80 74 70 72 74 70 64 63 64 68 63 63 60 60 57 56 56
117 130 126 126 127 124 121 123 125 124 120 116 112 107 104 100 96 92 92 88 84 82 78 75 73 73 68 74 77 79 80 78 75 73 72 67 65 70 68 67 62 63 63 63 65
108 127 130 126 127 126 123 123 123 124 123 119 113 109 107 102 99 97 94 91 87 82 81 77 74 71 71 69 72 79 79 79 80 79 73 71 65 68 70 70 70 68 65 65 64
103 119 130 130 130 129 126 124 123 122 126 122 119 114 110 107 100 97 95 93 91 87 83 80 79 74 70 69 72 69 77 81 79 78 76 74 72 74 76 75 73 72 72 71 69
98 109 127 133 131 127 128 121 124 124 127 125 118 115 111 107 105 102 99 94 94 91 88 82 80 79 76 74 72 72 70 71 73 76 77 74 75 71 74 80 78 77 76 74 71
92 104 120 132 132 131 130 128 125 129 129 123 120 117 113 112 109 105 101 96 94 92 90 84 84 81 80 80 75 72 72 72 71 69 66 68 71 71 69 74 80 81 80 77 72
88 99 112 122 134 132 130 130 130 127 129 124 120 120 117 114 112 108 104 98 95 94 92 89 87 85 83 82 81 79 77 75 72 70 68 68 66 68 70 70 70 72 71 71 71
80 94 104 114 124 132 133 133 134 130 127 126 125 121 120 116 112 109 105 101 100 97 95 94 90 89 89 87 85 81 78 79 75 69 68 67 66 67 68 68 71 72 72 72 72
76 89 99 109 119 129 135 138 133 133 131 127 128 123 117 115 113 108 106 103 102 99 98 97 94 93 91 91 88 86 84 80 75 73 72 69 68 69 69 70 70 72 73 73 73
74 84 94 104 114 123 130 135 134 131 132 129 127 125 118 117 115 112 108 106 103 102 101 100 99 96 93 89 92 92 89 87 85 81 78 75 73 74 74 75 76 76 77 79 80
71 82 89 96 106 114 124 127 129 129 129 129 127 124 119 118 117 116 111 108 107 106 105 103 100 99 98 95 95 94 92 92 91 88 85 84 82 85 85 85 86 85 86 88 89
69 81 88 95 100 107 114 120 123 126 129 128 128 124 120 119 120 118 116 113 110 109 107 105 104 102 103 101 98 97 96 96 96 95 92 92 89 90 91 92 93 93 94 95 95
61 73 84 91 95 102 109 115 120 125 125 127 126 126 122 118 118 120 122 117 113 112 110 107 103 103 100 103 105 103 102 100 98 94 95 94 96 97 97 97 98 98 98 98 98
55 66 78 91 94 100 107 111 114 115 121 128 128 123 122 120 117 118 121 122 119 115 112 110 104 102 103 102 102 105 105 105 102 101 99 98 97 99 100 100 98 97 100 100 99
48 56 64 81 99 104 107 106 110 112 114 116 121 122 121 116 115 115 118 120 122 122 118 114 110 108 105 106 105 104 103 102 102 103 102 105 101 107 106 102 102 104 105 103 106
47 55 67 77 90 100 103 102 105 106 109 112 120 120 115 116 116 119 121 123 124 125 124 119 116 113 108 106 106 103 99 102 103 104 106 105 107 106 107 108 106 106 107 109 109